Weather Roundup
Issued by NWS Chicago, IL

Home | Current Version | Previous Version | Text Only | Print | Product List | Glossary Off
Versions: 1 2 3 4 5 6 7 8 9 10 11 12 13 14 15 16 17 18 19 20 21 22 23 24 25 26 27 28 29 30 31 32 33 34 35 36 37 38 39 40 41 42 43 44 45 46 47 48 49 50

454
NZUS59 KLOT 252003
HRRLOT

CHICAGO AREA WEATHER ROUNDUP
NATIONAL WEATHER SERVICE CHICAGO/ROMEOVILLE IL
200 PM CST SAT FEB 25 2017

NOTE: "FAIR" INDICATES FEW OR NO CLOUDS BELOW 12,000 FEET WITH NO
SIGNIFICANT WEATHER AND/OR OBSTRUCTIONS TO VISIBILITY.

* THESE STATIONS ARE NOT UNDER NWS QUALITY CONTROL. THEY ALSO MAY NOT
  REPORT WEATHER SUCH AS PRECIPITATION OR FOG.

ILZ005-006-012>014-019>023-252100-
NORTHEAST ILLINOIS

CITY           SKY/WX    TMP DP  RH WIND       PRES   REMARKS
OHARE          FLURRIES  26  13  57 W20G28    29.88R WCI  12
MIDWAY         FLURRIES  27  13  55 W16G28    29.89R WCI  15
AURORA         CLOUDY    28  17  63 W21G29    29.90R WCI  15
LANSING*       CLOUDY    26  16  64 W16G28    29.90R WCI  14
JOLIET*        CLOUDY    29  18  62 W16G24    29.92R WCI  17
WAUKEGAN       LGT SNOW  22  13  68 NW9G20    29.86R WCI  12
DUPAGE AIRPORT CLOUDY    26  14  60 W22G29    29.89R WCI  12
WHEELING       FLURRIES  24  12  60 W16       29.89R WCI  11
KANKAKEE*      PTSUNNY   29  15  57 W18G30    29.93R WCI  16
MORRIS*        CLOUDY    29  18  62 W23G29    29.92R WCI  16
LEWIS AIRPORT* CLOUDY    28  21  75 W18G24    29.90S WCI  15
NORTHERLY ISL    N/A     25  13  60 W13         N/A  WCI  14
$$

WIZ051-052-058>065-066-070>072-252100-
SOUTHEAST WISCONSIN

CITY           SKY/WX    TMP DP  RH WIND       PRES   REMARKS
MILWAUKEE      FLURRIES  22  10  60 W13G24    29.86R WCI  10
KENOSHA*       LGT SNOW  22  13  68 W20       29.87R WCI   7
RACINE*        CLOUDY    21   9  59 W14G24    29.88R WCI   8
WAUKESHA       CLOUDY    18   9  68 W18G26    29.86R WCI   2
WEST BEND      FLURRIES  19  14  79 W9        29.82R WCI   9
$$

INZ001>003-010>013-019-020-252100-
NORTHWEST INDIANA

CITY           SKY/WX    TMP DP  RH WIND       PRES   REMARKS
GARY*          CLOUDY    28  12  50 W22       29.90R WCI  15
MICHIGAN CITY* NOT AVBL
RENSSELAER*    NOT AVBL
VALPARAISO     CLOUDY    31  16  54 W18G28    29.88R WCI  19
$$

LMZ740>746-252100-
SOUTHERN LAKE MICHIGAN

STATION/POSITION TIME  SKY/WX   TEMP WIND        PRES    VSBY
                                AIR  DIR/SP/G
                 (UTC)          (F)  (DEG/KT/KT) (MB)    (MI)
HARRISON CRIB    1940            25  280/ 22/ 25   N/A
BURNHAM HARBOR   2000            26  280/ 16/ 20   N/A
CALUMET HARBOR   1930            26  250/ 13/ 20 1011.5R
BURNS HARBOR     1940            27  270/ 18/ 25 1012.2R
MICHIGAN CITY    1940            25  250/ 24/ 28   N/A
$$

ABBREVIATIONS USED IN REMARKS
   TC - TEMPERATURE IN CELSIUS
  WCI - WIND CHILL INDEX
   HX - HEAT INDEX
  VSB - VISIBILITY
$$




USA.gov is the U.S. government's official web portal to all federal, state and local government web resources and services.